Zurück zum Katalog

ONEWEB-0127

AktivKommunikationPO
NORAD 47273·PAYLOAD·🇬🇧 United Kingdom

Gestartet Dec 18, 2020 von Vostochny Cosmodrome

Loading…

Nächste Überflüge (nächste 24 Stunden)

TLE

AktuellSource: CelesTrak SupGP

Epoche: Sep 14, 2026, 14:37 UTC

1 47273C 20100R   26257.60952963  .00004090  00000+0  11381-1 0  2572
2 47273  87.8986 332.9104 0001777  99.2138   5.9573 13.12439690    15

Verfolge ONEWEB-0127 in Echtzeit mit AllMySat

Download on the App Store